Home   Weather   Larnaca   Past weeks

Flag for Cyprus Past Weather in Larnaca, Cyprus — Yesterday and Last 2 Weeks

Now
55 °F

Passing clouds.


Feels Like: 55 °F
Forecast: 43 / 65 °F
Wind: 3 mph from West

Location: Larnaca Airport

Current Time: Dec 9, 2016 at 5:54:56 pm

Latest Report: Dec 9, 2016 at 5:30 pm


Visibility: N/A

Pressure: 30.27 "Hg

Humidity: 55%

Dew Point: 39 °F

Location of LarnacaLocation

Past Weather in Larnaca — Graph

°F

Larnaca Temperature Yesterday

Maximum temperature yesterday: 61 °F (at 1:00 pm)
Minimum temperature yesterday: 45 °F (at 10:00 pm)
Average temperature yesterday: 55 °F

High & Low Weather Summary for the Past Weeks

 TemperatureHumidityPressure
High72 °F (Nov 25, 1:00 pm)100% (Dec 1, 1:00 am)30.39 "Hg (Dec 1, 1:00 am)
Low45 °F (Dec 8, 10:00 pm)24% (Nov 24, 4:00 pm)29.59 "Hg (Dec 1, 4:30 pm)
Average58 °F63%30.09 "Hg
* Reported Nov 24 4:00 pm — Dec 9 4:30 pm, Larnaca, Weather by CustomWeather, © 2016

Note: Actual official high and low records may vary slightly from our data, if they occured in-between our weather recording intervals... More about our weather records

Advertising

Larnaca Weather History for the Previous 24 Hours

Scroll right to see more
 ConditionsComfort  
Time TempWeatherWind HumidityBarometerVisibility
4:30 pm
Fri, Dec 9
59 °FPassing clouds.7 mph48%30.27 "HgN/A
4:00 pm61 °FPassing clouds.8 mph42%30.27 "HgN/A
3:30 pm63 °FPassing clouds.8 mph39%30.27 "HgN/A
3:00 pm63 °FPassing clouds.9 mph39%30.27 "HgN/A
2:30 pm63 °FPassing clouds.10 mph39%30.27 "HgN/A
2:00 pm63 °FPassing clouds.12 mph39%30.27 "HgN/A
1:30 pm63 °FPassing clouds.10 mph39%30.27 "HgN/A
1:00 pm63 °FPassing clouds.8 mph39%30.27 "HgN/A
12:30 pm63 °FPassing clouds.8 mph39%30.27 "HgN/A
12:00 pm63 °FPassing clouds.7 mph39%30.30 "HgN/A
11:30 am63 °FSunny.3 mph37%30.30 "Hg10 mi
11:00 am61 °FPassing clouds.3 mph42%30.33 "HgN/A
10:30 am63 °FPassing clouds.3 mph37%30.33 "HgN/A
10:00 am63 °FPassing clouds.2 mph37%30.33 "HgN/A
9:30 am57 °FPassing clouds.1 mph51%30.36 "HgN/A
9:00 am54 °FPassing clouds.2 mph58%30.36 "HgN/A
8:30 am52 °FPassing clouds.3 mph62%30.36 "HgN/A
8:00 am48 °FPassing clouds.5 mph66%30.36 "HgN/A
7:30 am46 °FPassing clouds.6 mph62%30.36 "HgN/A
6:30 am45 °FPassing clouds.10 mph61%30.36 "HgN/A
6:00 am45 °FPassing clouds.8 mph66%30.36 "HgN/A
5:30 am45 °FClear.8 mph61%30.33 "Hg10 mi
5:00 am45 °FClear.8 mph61%30.33 "Hg10 mi
4:30 am45 °FClear.7 mph66%30.33 "Hg10 mi
4:00 am46 °FClear.8 mph57%30.36 "Hg10 mi
3:30 am45 °FClear.8 mph61%30.36 "Hg10 mi
3:00 am45 °FClear.6 mph61%30.36 "Hg10 mi
2:30 am45 °FClear.6 mph66%30.36 "Hg10 mi
2:00 am45 °FClear.7 mph66%30.36 "Hg10 mi
1:30 am45 °FClear.6 mph66%30.36 "Hg10 mi
1:00 am45 °FClear.7 mph66%30.36 "Hg10 mi
12:30 am45 °FClear.7 mph66%30.36 "Hg10 mi
12:00 am46 °FClear.7 mph62%30.36 "Hg10 mi
11:30 pm
Thu, Dec 8
46 °FClear.7 mph62%30.36 "Hg10 mi
11:00 pm46 °FClear.7 mph62%30.36 "Hg10 mi
10:30 pm45 °FClear.7 mph71%30.39 "Hg10 mi
10:00 pm45 °FClear.6 mph71%30.39 "Hg10 mi
9:30 pm46 °FClear.7 mph66%30.39 "Hg10 mi
9:00 pm46 °FClear.6 mph66%30.36 "Hg10 mi
8:30 pm46 °FClear.6 mph62%30.36 "Hg10 mi
8:00 pm50 °FClear.6 mph54%30.36 "Hg10 mi
7:30 pm50 °FClear.8 mph54%30.36 "Hg10 mi
7:00 pm50 °FClear.9 mph54%30.36 "Hg10 mi
6:30 pm52 °FClear.10 mph50%30.36 "Hg10 mi
6:00 pm55 °FPassing clouds.13 mph44%30.33 "HgN/A
5:30 pm57 °FPassing clouds.13 mph39%30.33 "HgN/A
5:00 pm57 °FPassing clouds.15 mph41%30.33 "HgN/A
Weather by CustomWeather, © 2016

See weather overviewHow to use our weather pages